Regional Weather Roundup
Issued by NWS

Home | Current Version | Previous Version | Text Only | Print | Product List | Glossary On
Versions: 1 2 3 4 5 6 7 8 9 10 11 12 13 14 15 16 17 18 19 20 21 22 23 24 25 26 27 28 29 30 31 32 33 34 35 36 37 38 39 40 41 42 43 44 45 46 47 48 49 50
000
ASUS44 KJAN 240210
RWRMS

MISSISSIPPI HOURLY WEATHER ROUNDUP
NATIONAL WEATHER SERVICE JACKSON MS
900 PM CDT MON OCT 23 2017

NOTE: "FAIR: INDICATES FEW OR NO CLOUDS BELOW 12,000 FEET WITH NO
SIGNIFICANT WEATHER AND/OR OBSTRUCTIONS TO VISIBILITY.

MSZ001>002-007>008-010>013-018>021-025>028-034>036-240300-
NORTHWEST MISSISSIPPI

CITY           SKY/WX    TMP DP  RH WIND       PRES   REMARKS
BATESVILLE     FAIR      54  47  78 CALM      29.97S
CLARKSDALE       N/A     63  48  59 SW8       29.96S
CLEVELAND      FAIR      61  48  63 SW8       29.97F
GREENWOOD      CLEAR     53  49  86 S5        29.99S
GREENVILLE     CLEAR     55  47  74 SW6       29.98F
OXFORD         FAIR      57  43  58 VRB7      29.97S
TUNICA           N/A    N/A N/A N/A SW8       29.95S
WINONA         FAIR      50  49  96 CALM      29.99S
$$

MSZ003>006-009-014>017-022>024-029>033-037>039-240300-
NORTHEAST MISSISSIPPI

CITY           SKY/WX    TMP DP  RH WIND       PRES   REMARKS
COLUMBUS AFB   CLEAR     50  50  98 S5        29.98S
CORINTH        FAIR      50  46  87 CALM      29.93F
GOLDN TRIANGLE CLEAR     52  46  80 SW6       29.99S
STARKVILLE     FAIR      50  48  93 SW3       30.00S
TUPELO         CLEAR     55  45  68 S5        29.96S
$$

MSZ040-058-240300-
CENTRAL MISSISSIPPI

CITY           SKY/WX    TMP DP  RH WIND       PRES   REMARKS
JACKSON INTL   CLEAR     55  47  74 CALM      30.03R
JACKSON HAWKNS CLEAR     56  50  80 CALM      30.03S
MADISON        FAIR      50  46  87 CALM      30.02S
MERIDIAN KEY   CLEAR     53  51  93 CALM      30.02S
MERIDIAN NAS   CLEAR     54  49  83 CALM      30.02R
RAYMOND        FAIR      52  52 100 CALM      30.03R
VICKSBURG VKS  CLEAR     54  52  94 CALM      30.04S
$$

MSZ059>079-240300-
SOUTH MISSISSIPPI

CITY           SKY/WX    TMP DP  RH WIND       PRES   REMARKS
HATTIESBURG    CLEAR     55  53  93 CALM      30.04R
LAUREL         FAIR      53  53 100 CALM      30.03F
MCCOMB         CLEAR     54  50  86 CALM      30.05R
NATCHEZ        CLEAR     55  52  89 CALM      30.05R
PINE BELT      CLEAR     52  50  93 CALM      30.04S
$$

MSZ080>082-240300-
COASTAL MISSISSIPPI

CITY           SKY/WX    TMP DP  RH WIND       PRES   REMARKS
BILOXI         CLEAR     62  50  64 CALM      30.03R
PASCAGOULA     CLEAR     57  53  86 CALM      30.03R
GULFPORT       CLEAR     59  52  77 NW3       30.02R
$$

LAZ007>009-015>016-023>026-240300-
NORTHEAST LOUISIANA

CITY           SKY/WX    TMP DP  RH WIND       PRES   REMARKS
BASTROP        FAIR      53  53  98 CALM      30.03S
TALLULAH/VBURG CLEAR     51  50  96 CALM      30.03R
VIDALIA          N/A    N/A N/A N/A MISG      30.04R
$$



USA.gov is the U.S. government's official web portal to all federal, state and local government web resources and services.